Terug naar catalogus

CZ-4C R/B

ActiefWetenschapSSO
NORAD 68761·ROCKET BODY·🇨🇳 China

Gelanceerd Apr 17, 2026 vanaf Jiuquan Satellite Launch Center

Loading…

Volgende Passages (komende 24 uur)

TLE

VersSource: Space-Track

Epoch: Sep 14, 2026, 17:00 UTC

1 68761U 26084B   26257.70901490  .00000800  00000-0  81275-4 0  9995
2 68761  98.2831 339.0821 0121295 274.0577  84.6782 14.88867924 22409

Volg CZ-4C R/B in realtime met AllMySat

Download on the App Store